User: anonymous   Login
Location: Unspecified
(0.0000°N, 0.0000°E)
Time: 04:45:33
(UTC+00:00)
Language:

ATS 5 - Orbit

View from above orbital plane
View from above orbital plane
View from above satellite
View from above satellite

Ground track
Ground track

The orbit data is extracted from the following two-line orbital elements,

1  4068U 69069A   18020.15743705 -.00000277 +00000-0 +00000-0 0  9998
2  4068 007.4256 302.2690 0007007 311.2722 042.2505 00.99492048015771
Epoch (UTC): 20 January 2018 03:46:42
Eccentricity: 0.0007007
inclination: 7.4256°
perigee height: 35976 km
apogee height: 36036 km
right ascension of ascending node: 302.2690°
argument of perigee: 311.2722°
revolutions per day: 0.99492048
mean anomaly at epoch: 42.2505°
orbit number at epoch: 1577

The dashed part of the orbit path shows where the satellite is in the earth's shadow,  

DLR